GSAT0209 (GALILEO 12)

Last updated on Thu Oct 10 2024 00:02:28 GMT+0000 (Coordinated Universal Time)

1 41174U 15079A 24283.12622964 .00000061 00000+0 00000+0 0 9995 2 41174 55.4760 118.1828 0002358 356.2784 3.7922 1.70474184 54275
UTC large
Height (km)
Speed (km/s)
/
Latitude / Longitude
Inclination (degrees)
Orbital Period (minutes)
Azimuth
Elevation
Range (km)
Doppler Factor

Next 0 passes for location: London (51.5072 / 0.1276)

Sorry there are no passes over London.